TDRS 10

Last updated on Nov. 18, 2019, 4:21 a.m. UTC

1 27566U 02055A   19321.03399595  .00000100  00000-0  00000+0 0  9997
2 27566   6.5387  54.5711 0005332 251.3533 311.0198  1.00267376 62110
UTC
Height (km)
Latitude
Longitude
Inclination
Orbital Period
UTC large
Height (km)
Speed (km/s)
/
Latitude / Longitude
Inclination (degrees)
Orbital Period (minutes)
Azimuth
Elevation
Range (km)
Doppler Factor
iOS Compass Heading
iOS Angle

Next 30 passes for location: Hong Kong

Rise time Rise Azimuth (degrees) Set time Set Azimuth (degrees) Duration Max altitude (degrees)

No matching passes for this satellites